WetterOnline ( https://www.wetteronline.de )

Wetter aktuell Stuttgart

Aktuelles Wetter: Stuttgart/Echterdingen (391m)

6-stündlich | Neueste Meldungen
Ortszeit Temperatur Wetter
Fr, 19.07. 2:00 19.1° C leicht bewölkt
Do, 18.07. 20:00 25.7° C wolkig
Do, 18.07. 14:00 25.5° C wolkig
Do, 18.07. 8:00 19.0° C leicht bewölkt
Do, 18.07. 2:00 16.6° C leicht bewölkt
Mi, 17.07. 20:00 23.0° C wolkenlos
Mi, 17.07. 14:00 22.6° C wolkig
Mi, 17.07. 8:00 15.7° C wolkig
Ortszeit Temperatur Wetter
Fr, 19.07. 5:30 16.6° C wolkig
Fr, 19.07. 5:20 16.6° C wolkig
Fr, 19.07. 5:10 16.6° C bedeckt
Fr, 19.07. 5:00 16.8° C wolkig
Fr, 19.07. 4:50 16.8° C wolkig
Fr, 19.07. 4:40 16.8° C bewölkt
Fr, 19.07. 4:30 17.2° C wolkig
Fr, 19.07. 4:00 17.2° C leicht bewölkt
Fr, 19.07. 3:30 18.2° C fast wolkenlos
Fr, 19.07. 3:00 18.4° C fast wolkenlos
Fr, 19.07. 2:30 18.5° C leicht bewölkt
Fr, 19.07. 2:00 19.1° C leicht bewölkt
Ortszeit Relative Feuchte Sichtweite
Fr, 19.07. 2:00 77% >70 km
Do, 18.07. 20:00 49% 65 km
Do, 18.07. 14:00 48% 50 km
Do, 18.07. 8:00 68% 60 km
Do, 18.07. 2:00 79% >70 km
Mi, 17.07. 20:00 50% >70 km
Mi, 17.07. 14:00 54% 65 km
Mi, 17.07. 8:00 90% 35 km
Ortszeit Relative Feuchte Sichtweite
Fr, 19.07. 5:30 87% 15 km
Fr, 19.07. 5:20 87% -
Fr, 19.07. 5:10 86% -
Fr, 19.07. 5:00 84% 50 km
Fr, 19.07. 4:50 84% -
Fr, 19.07. 4:40 84% -
Fr, 19.07. 4:30 84% 50 km
Fr, 19.07. 4:00 83% 45 km
Fr, 19.07. 3:30 80% 55 km
Fr, 19.07. 3:00 78% 40 km
Fr, 19.07. 2:30 79% 60 km
Fr, 19.07. 2:00 77% >70 km
Ortszeit Niederschlagsmenge Niederschlagsart
Fr, 19.07. 2:00 0.0 l/m2 in 6 Std. -
Do, 18.07. 20:00 0.0 l/m2 in 12 Std. -
Do, 18.07. 14:00 0.0 l/m2 in 6 Std. -
Do, 18.07. 8:00 0.0 l/m2 in 12 Std. -
Do, 18.07. 2:00 0.0 l/m2 in 6 Std. -
Mi, 17.07. 20:00 0.0 l/m2 in 12 Std. -
Mi, 17.07. 14:00 0.0 l/m2 in 6 Std. -
Mi, 17.07. 8:00 0.0 l/m2 in 12 Std. -
Ortszeit Niederschlagsmenge Niederschlagsart
Fr, 19.07. 5:30 0.0 l/m2 in 30 Min -
Fr, 19.07. 5:20 keine Meldung -
Fr, 19.07. 5:10 keine Meldung -
Fr, 19.07. 5:00 0.0 l/m2 in 1 Std. -
Fr, 19.07. 4:50 keine Meldung -
Fr, 19.07. 4:40 keine Meldung -
Fr, 19.07. 4:30 0.0 l/m2 in 30 Min -
Fr, 19.07. 4:00 0.0 l/m2 in 1 Std. -
Fr, 19.07. 3:30 0.0 l/m2 in 30 Min -
Fr, 19.07. 3:00 0.0 l/m2 in 1 Std. -
Fr, 19.07. 2:30 0.0 l/m2 in 30 Min -
Fr, 19.07. 2:00 0.0 l/m2 in 1 Std. -
Ortszeit Stärke Spitze Richtung
km/h Bft. km/h Grad Sektor
Fr, 19.07. 2:00 0 0 22 - -
Do, 18.07. 20:00 9 2 28 30° NO
Do, 18.07. 14:00 11 2 33 60° NO
Do, 18.07. 8:00 0 0 11 - -
Do, 18.07. 2:00 4 1 22 290° W
Mi, 17.07. 20:00 11 2 22 360° N
Mi, 17.07. 14:00 15 3 24 360° N
Mi, 17.07. 8:00 0 0 11 - -
Ortszeit Stärke Spitze Richtung
km/h Bft. km/h Grad Sektor
Fr, 19.07. 5:30 4 1 4 260° W
Fr, 19.07. 5:20 4 1 - 260° W
Fr, 19.07. 5:10 2 1 - 290° W
Fr, 19.07. 5:00 2 1 6 280° W
Fr, 19.07. 4:50 2 1 - 280° W
Fr, 19.07. 4:40 2 1 - 260° W
Fr, 19.07. 4:30 4 1 7 270° W
Fr, 19.07. 4:00 6 1 7 260° W
Fr, 19.07. 3:30 4 1 7 280° W
Fr, 19.07. 3:00 4 1 7 290° W
Fr, 19.07. 2:30 7 2 7 310° NW
Fr, 19.07. 2:00 0 0 7 - -
Ortszeit Untergrenze Bedeckung Gattung
total tief tief mittel hoch
Fr, 19.07. 2:00 1800 m 3/8 3/8 - - -
Do, 18.07. 20:00 9000 m 8/8 0/8 - - -
Do, 18.07. 14:00 1500 m 7/8 4/8 - - -
Do, 18.07. 8:00 9000 m 3/8 0/8 - - -
Do, 18.07. 2:00 9000 m 6/8 0/8 - - -
Mi, 17.07. 20:00 - 0/8 0/8 - - -
Mi, 17.07. 14:00 1470 m 6/8 6/8 - - -
Mi, 17.07. 8:00 6000 m 6/8 6/8 - - -
Ortszeit Bedeckungsgrad in Achtel und Wolkenuntergrenze
Fr, 19.07. 5:30 8(10500m) 8(10500m)
Fr, 19.07. 5:20 8(10500m) 8(10500m)
Fr, 19.07. 5:10 8
Fr, 19.07. 5:00 7(9000m) 8(10500m)
Fr, 19.07. 4:50 7(9000m) 8(10500m)
Fr, 19.07. 4:40 7
Fr, 19.07. 4:30 3(9000m) 7(10500m)
Fr, 19.07. 4:00 3(9000m)
Fr, 19.07. 3:30 1(10500m)
Fr, 19.07. 3:00 1(10500m)
Fr, 19.07. 2:30 3(1800m)
Fr, 19.07. 2:00 3(1800m)
Ortszeit Luftdruck NN (hPa) Tendenz (hPa in 3 Std.)
Fr, 19.07. 2:00 1020 - 0,1
Do, 18.07. 20:00 1019 - 0,5
Do, 18.07. 14:00 1020 - 0,4
Do, 18.07. 8:00 1022 + 0,5
Do, 18.07. 2:00 1022 0,0
Mi, 17.07. 20:00 1020 - 0,1
Mi, 17.07. 14:00 1021 0,0
Mi, 17.07. 8:00 1021 + 1,4
Ortszeit Luftdruck NN (hPa) Tendenz (hPa in 3 Std.)
Fr, 19.07. 5:30 1020 - 0,6
Fr, 19.07. 5:20 1020 keine Meldung
Fr, 19.07. 5:10 1020 keine Meldung
Fr, 19.07. 5:00 1020 - 0,8
Fr, 19.07. 4:50 1020 keine Meldung
Fr, 19.07. 4:40 1020 keine Meldung
Fr, 19.07. 4:30 1020 - 0,8
Fr, 19.07. 4:00 1020 - 0,7
Fr, 19.07. 3:30 1020 - 0,6
Fr, 19.07. 3:00 1020 - 0,4
Fr, 19.07. 2:30 1020 - 0,3
Fr, 19.07. 2:00 1020 - 0,1
Ortszeit Schneehöhe (cm)
Fr, 19.07. 2:00 0
Do, 18.07. 20:00 0
Do, 18.07. 14:00 0
Do, 18.07. 8:00 0
Do, 18.07. 2:00 0
Mi, 17.07. 20:00 0
Mi, 17.07. 14:00 0
Mi, 17.07. 8:00 0
Ortszeit Schneehöhe (cm)
Fr, 19.07. 5:30 0
Fr, 19.07. 5:20 0
Fr, 19.07. 5:10 -
Fr, 19.07. 5:00 0
Fr, 19.07. 4:50 0
Fr, 19.07. 4:40 -
Fr, 19.07. 4:30 0
Fr, 19.07. 4:00 0
Fr, 19.07. 3:30 0
Fr, 19.07. 3:00 0
Fr, 19.07. 2:30 0
Fr, 19.07. 2:00 0
Link zu dieser Seite / Seite empfehlen

Das Wetter in ...